User: anonymous   Login
Location: Unspecified
(0.0000°N, 0.0000°E)
Time: 22:55:17
(UTC+00:00)
Language:

DNEPR OBJECT AB - Orbit

View from above orbital plane
View from above orbital plane
View from above satellite
View from above satellite

Ground track
Ground track

The orbit data is extracted from the following two-line orbital elements,

1 39441U 13066AB  18294.55788730  .00000127  00000-0  25104-4 0  9990
2 39441  97.6019 300.3188 0082644 149.9074 210.6923 14.74822949264405
Epoch (UTC): 21 October 2018 13:23:21
Eccentricity: 0.0082644
inclination: 97.6019°
perigee height: 587 km
apogee height: 704 km
right ascension of ascending node: 300.3188°
argument of perigee: 149.9074°
revolutions per day: 14.74822949
mean anomaly at epoch: 210.6923°
orbit number at epoch: 26440

The dashed part of the orbit path shows where the satellite is in the earth's shadow,  

DLR